Regional Weather Roundup
Issued by NWS

Home | Current Version | Previous Version | Graphics & Text | Print | Product List | Glossary Off
Versions: 1 2 3 4 5 6 7 8 9 10 11 12 13 14 15 16 17 18 19 20 21 22 23 24 25 26 27 28 29 30 31 32 33 34 35 36 37 38 39 40 41 42 43 44 45 46 47 48 49 50

000
ASUS43 KMKX 280000
RWRWI

WISCONSIN REGIONAL WEATHER ROUNDUP
NATIONAL WEATHER SERVICE MILWAUKEE/SULLIVAN WI
700 PM CDT THU AUG 27 2015

NOTE: "FAIR" INDICATES FEW OR NO CLOUDS BELOW 12,000 FEET WITH NO
SIGNIFICANT WEATHER AND/OR OBSTRUCTIONS TO VISIBILITY.

WIZ001-002-006>008-014>016-023>028-280100-
NORTHWEST WISCONSIN

CITY           SKY/WX    TMP DP  RH WIND       PRES   REMARKS
SUPERIOR ARPT  CLOUDY    59  51  74 NE3       30.01F
ASHLAND        CLOUDY    65  59  81 CALM      30.03S
6HR MIN TEMP:  65; 6HR MAX TEMP:  77;

HAYWARD        MOCLDY    68  59  73 S5        30.04F
6HR MIN TEMP:  68; 6HR MAX TEMP:  73;

SIREN          CLOUDY    71  59  66 S7        30.03S
CUMBERLAND     CLOUDY    68  59  73 S6        30.05S
RICE LAKE      CLOUDY    69  58  68 S7        30.06S
CHETEK         CLOUDY   N/A N/A N/A S3        30.06S
LADYSMITH      MOCLDY    69  59  71 S5        30.08S
6HR MIN TEMP:  69; 6HR MAX TEMP:  75;

EAU CLAIRE     NOT AVBL
MENOMONIE      CLOUDY    70  60  70 SE7       30.03F
6HR MIN TEMP:  70; 6HR MAX TEMP:  76;

NEW RICHMOND   CLOUDY    71  61  70 SE3       30.03F
OSCEOLA        CLOUDY    71  62  73 S5        30.05S
$$

WIZ003>005-009-010-017-018-280100-
NORTH CENTRAL WISCONSIN

CITY           SKY/WX    TMP DP  RH WIND       PRES   REMARKS
MANITOWISH WTR CLOUDY    69  55  62 SW6       30.08R
ARBOR VITAE    MOCLDY    72  59  63 SW6       30.08S
WOODRUFF       MOCLDY    72  59  63 SW6       30.08S
RHINELANDER    CLOUDY    68  55  63 SW5       30.09F
6HR MIN TEMP:  68; 6HR MAX TEMP:  74;

EAGLE RIVER    PTCLDY    69  52  55 SW3       30.07F
LAND O LAKES   CLEAR     70  53  56 SW3       30.08F
PHILLIPS       CLOUDY    68  58  70 S5        30.06F
6HR MIN TEMP:  68; 6HR MAX TEMP:  73;

TOMAHAWK       CLOUDY    67  57  70 CALM      30.09S
MEDFORD        CLOUDY    68  60  76 S3        30.08F
MERRILL        MOCLDY    69  58  66 CALM      30.09S
6HR MIN TEMP:  69; 6HR MAX TEMP:  74;

$$

WIZ029-030-035-036-043>047-280100-
CENTRAL WISCONSIN

CITY           SKY/WX    TMP DP  RH WIND       PRES   REMARKS
WAUSAU         MOCLDY    70  57  63 SW3       30.07F
6HR MIN TEMP:  70; 6HR MAX TEMP:  75;

MOSINEE        NOT AVBL
MARSHFIELD     MOCLDY    69  57  65 SW5       30.08F
6HR MIN TEMP:  69; 6HR MAX TEMP:  76;

STEVENS POINT  MOCLDY    69  55  59 S3        30.09S
WAUPACA        MOCLDY    73  57  58 S3        30.09S
WAUTOMA        NOT AVBL
WISC RAPIDS    MOCLDY    70  56  61 S5        30.09F
6HR MIN TEMP:  70; 6HR MAX TEMP:  77;

CAMP DOUGLAS   NOT AVBL
$$

WIZ011>013-019>022-031-037>040-048>050-280100-
NORTHEAST WISCONSIN

CITY           SKY/WX    TMP DP  RH WIND       PRES   REMARKS
ANTIGO         CLEAR     68  54  61 SW6       30.10S
SHAWANO        CLEAR     73  57  58 CALM      30.09S
OCONTO         CLEAR     68  60  75 CALM      30.08S
STURGEON BAY   CLEAR     64  54  68 S9        30.12F
6HR MIN TEMP:  64; 6HR MAX TEMP:  70;

GREEN BAY      CLEAR     68  59  73 SW5       30.09S
6HR MIN TEMP:  68; 6HR MAX TEMP:  75;

MANITOWOC      NOT AVBL
APPLETON       MOCLDY    70  55  60 S5        30.08S
CLINTONVILLE   PTCLDY    70  55  60 S3        30.08S
OSHKOSH        MOCLDY    66  58  75 S5        30.10R
6HR MIN TEMP:  66; 6HR MAX TEMP:  74;

$$

WIZ032>034-041-042-053>061-280100-
SOUTHWEST WISCONSIN

CITY           SKY/WX    TMP DP  RH WIND       PRES   REMARKS
LA CROSSE      MOCLDY    74  59  59 S8        30.06F
6HR MIN TEMP:  74; 6HR MAX TEMP:  77;

SPARTA         CLOUDY    72  57  60 S3        30.10R
VIROQUA        MOCLDY    69  60  72 S5        30.11S
BOSCOBEL       MOCLDY    73  59  61 S5        30.10R
6HR MIN TEMP:  73; 6HR MAX TEMP:  79;

PRAIRIE DU CHI CLOUDY    72  56  58 CALM      30.10R
PLATTEVILLE    CLOUDY    69  61  77 S3        30.11S
$$

WIZ056-057-062-063-064-067-068-280100-
SOUTH CENTRAL WISCONSIN

CITY           SKY/WX    TMP DP  RH WIND       PRES   REMARKS
REEDSBURG      PTCLDY    72  58  63 SW6       30.09S
BARABOO/DELLS  PTCLDY    71  55  56 SW6       30.10S
LONE ROCK      NOT AVBL
MINERAL POINT  PTCLDY    70  59  68 S3        30.11S
MADISON        MOCLDY    71  56  58 SW7       30.10S
6HR MIN TEMP:  71; 6HR MAX TEMP:  75;

MIDDLETON      MOCLDY    72  55  55 S7        30.11S
WATERTOWN      MOCLDY    70  58  65 S6        30.11R
MONROE         MOCLDY    70  57  64 S6        30.12F
JANESVILLE     PTCLDY    70  55  60 SW8       30.12R
$$

WIZ051-052-058>065-066-070>072-280100-
SOUTHEAST WISCONSIN

CITY           SKY/WX    TMP DP  RH WIND       PRES   REMARKS
MILWAUKEE      MOCLDY    66  53  63 S8        30.12F
6HR MIN TEMP:  66; 6HR MAX TEMP:  72;

WAUKESHA       CLEAR     66  54  63 SE7       30.13S
MILWAUKEE/TIMM CLEAR     68  52  56 S9        30.12F
RACINE         PTCLDY    65  55  70 S10       30.13F
6HR MIN TEMP:  65; 6HR MAX TEMP:  71;

BURLINGTON     MOCLDY    66  54  64 SE7       30.13S
KENOSHA        PTCLDY    66  55  67 SE8       30.13F
6HR MIN TEMP:  66; 6HR MAX TEMP:  74;

FOND DU LAC    MOCLDY    69  57  65 S5        30.10S
6HR MIN TEMP:  69; 6HR MAX TEMP:  75;

SHEBOYGAN      PTCLDY    63  54  72 S8        30.11F
6HR MIN TEMP:  63; 6HR MAX TEMP:  72;

WEST BEND      PTCLDY    64  54  68 CALM      30.11S
JUNEAU         MOCLDY    71  58  63 S6        30.12S
$$

LSZ147-162-280100-
LAKE SUPERIOR

STATION/POSITION TIME  TEMP    WIND        PRES    WAVE
                       AIR SEA DIR/SP/G            HT/PER
                 (UTC) (F)     (DEG/KT/KT) (MB)    (FT/S)
W MID LAKE BUOY  2250   59 58   80/  6/  6 1016.8F   0
DEVILS ISLAND    2300   58     110/  7/  8 1016.9S
PORT WING        2300   60      30/  4/  6 1016.6S
SAXON HARBOR     2300   69        CALM     1016.3
$$

LMZ867-665-643>646-280100-
LAKE MICHIGAN

STATION/POSITION TIME  TEMP    WIND        PRES    WAVE
                       AIR SEA DIR/SP/G            HT/PER
                 (UTC) (F)     (DEG/KT/KT) (MB)    (FT/S)
CHAMBERS ISLAND  2300   67     140/  4/  8 1019.0S
S GREEN BAY BUOY 2300   69     120/  8/ 12 1020.0F
N MID LAKE BUOY  2250   62 65  210/ 14/ 16 1019.6R   1/ 3
NORTHPORT PIER   2300   64     160/  5/ 10 1019.0F
SISTER BAY       2334   66     190/ 13/ 16   N/A
ALGOMA LAKESHORE 2314          200/  8/  9   N/A
KEWAUNEE LAKESHO 2300   54     180/ 11/ 12 1018.6R
SHEBOYGAN LAKESH 2300   62     190/ 17/ 19 1020.3R
PORT WASHINGTON  2300   59     200/  4/  9 1021.0R
ATWATER BUOY     2300   53 47  200/  6/  8 1021.6R
MILWAUKEE LAKESH 2300   57     150/ 13/ 14   N/A
S MID LAKE BUOY  2250   65 69  200/  6/  6 1020.9F   1
KENOSHA   LAKESH 2300   61     180/ 10/ 12 1020.3S
$$

TC  - TEMPERATURE IN CELSIUS
VSB - VISIBILITY IN STATUTE MILES
WCI - WIND CHILL INDEX
HX  - HEAT INDEX



USA.gov is the U.S. government's official web portal to all federal, state and local government web resources and services.